Probability
3 5 10 14 15 12 8 7 7 7 6 4 1 1 2 3 2 1 0 0 0 0 0 1 1 1 0 0 0 0 0 1 0 0 0 0 0 0 0 0 0 1 3
5 7 11 15 15 12 9 8 9 8 7 5 1 1 2 2 1 0 0 0 0 0 0 0 0 0 0 0 0 1 1 2 1 0 0 0 0 0 0 0 1 2 3
7 7 12 16 16 13 10 10 10 9 8 5 2 1 1 1 0 0 0 0 0 0 0 0 0 0 0 0 1 2 3 3 2 1 0 0 0 0 0 0 1 2 3
7 6 10 16 17 14 11 10 10 9 8 6 4 3 2 1 0 0 0 0 0 0 0 0 0 0 0 0 1 3 3 3 2 1 0 0 0 0 0 0 1 2 3
5 6 10 15 17 14 12 11 10 9 8 7 7 6 4 2 1 0 0 0 0 0 0 0 0 0 0 0 2 3 3 3 3 1 0 0 0 0 0 0 1 2 3
5 7 10 13 14 14 12 10 9 8 7 7 7 7 6 3 1 0 0 1 1 2 1 0 0 0 0 0 1 3 3 3 2 1 0 0 0 1 0 0 1 2 3
7 8 10 10 11 12 11 8 8 7 6 6 6 5 5 4 2 1 1 2 3 3 2 0 0 0 0 0 1 2 2 1 1 1 0 0 0 1 1 1 1 3 3
8 9 9 9 9 10 10 8 6 6 6 6 6 5 4 4 3 2 2 3 3 3 2 1 1 1 1 1 1 2 1 0 0 0 0 0 1 1 2 2 3 3 3
9 8 9 9 8 8 8 6 5 5 5 6 7 6 5 4 3 3 4 5 4 3 3 2 2 2 2 2 2 2 1 0 0 0 0 0 1 2 3 3 3 3 4
11 9 9 9 8 7 5 4 4 4 4 6 7 6 5 4 3 3 4 5 4 3 3 3 3 2 1 1 1 1 0 0 0 0 0 0 1 2 3 3 3 4 4
12 11 10 9 9 7 4 3 3 3 3 5 6 5 4 3 3 2 2 3 3 3 2 2 2 1 0 0 0 0 0 0 0 0 0 0 1 3 3 3 3 3 4
11 11 10 9 9 7 5 3 3 3 3 4 5 5 5 4 2 1 0 1 2 1 1 1 1 0 0 0 0 0 0 0 0 0 0 1 2 3 3 3 3 3 3
10 10 10 9 8 7 6 4 3 3 3 3 5 7 8 6 3 0 0 0 0 0 0 0 0 0 0 0 0 0 0 0 0 0 0 1 2 3 3 3 3 3 3
9 9 8 7 7 6 6 5 4 3 3 3 5 8 8 7 4 1 0 0 0 0 0 0 0 0 0 0 0 0 0 0 0 0 0 0 1 1 3 3 3 3 3
8 7 7 7 6 6 6 6 4 3 3 4 6 7 7 6 5 3 1 0 0 0 0 0 0 0 0 0 0 0 0 0 0 0 0 0 0 1 2 3 3 3 3
6 6 6 7 7 7 6 6 4 3 3 4 5 5 5 5 5 4 2 1 0 0 0 0 0 0 0 0 0 0 0 0 0 0 0 0 0 0 1 3 3 3 3
6 6 7 8 8 7 6 6 4 3 3 3 4 4 4 4 3 4 3 1 0 0 0 0 0 0 0 0 0 0 0 0 0 0 0 0 0 0 1 3 3 3 3
6 6 7 7 8 7 6 6 5 4 3 3 3 3 4 3 2 3 3 2 1 0 0 0 0 0 0 0 0 0 0 0 0 0 0 0 0 1 2 3 3 2 1
5 5 5 5 6 7 6 6 5 4 3 3 3 3 3 2 1 2 3 3 2 1 0 0 0 0 0 0 0 0 0 0 0 0 0 0 0 1 2 2 1 1 0
4 4 3 4 5 6 6 4 4 3 3 3 3 3 2 1 0 1 3 3 2 1 0 0 0 0 0 0 0 0 0 0 0 0 0 0 0 0 1 1 0 0 0
3 3 3 3 4 6 5 2 2 3 3 3 3 1 1 0 0 1 2 3 2 1 0 0 0 0 0 0 0 0 0 0 0 0 0 0 0 0 0 0 0 0 0
3 3 3 3 4 5 4 2 1 1 2 2 2 1 0 0 0 0 1 2 2 1 0 0 0 0 0 0 0 0 0 0 0 0 0 0 0 0 0 0 0 0 0
3 3 3 3 3 3 3 3 2 1 1 1 1 0 0 0 0 0 0 1 1 1 0 0 0 0 0 0 0 0 0 0 0 0 0 0 0 0 0 0 0 0 0
3 3 3 3 3 2 2 3 3 2 0 0 0 0 0 0 0 0 0 0 0 0 0 0 0 0 0 0 0 0 0 0 0 0 0 0 0 0 0 0 0 0 0
3 3 3 3 2 1 1 3 3 1 0 0 0 0 0 0 0 0 0 0 0 0 0 0 0 0 0 0 0 0 0 0 0 0 0 0 0 0 0 0 0 0 0
3 3 3 3 2 1 1 2 2 1 0 0 0 0 0 0 0 0 0 0 0 0 0 0 0 0 0 0 0 0 0 0 0 0 0 0 0 0 0 0 0 0 0
Wind_Speed
5 6 5 5 5 6 7 8 8 9 9 9 9 9 10 10 10 11 11 11 12 12 13 13 13 14 14 14 15 15 15 15 16 15 15 15 15 15 16 15 14 12 18
5 7 6 5 6 7 8 8 8 8 9 9 9 9 9 9 10 10 11 11 11 12 13 13 13 13 14 14 14 13 14 13 13 13 12 12 13 15 16 16 15 12 17
6 7 6 6 6 7 8 8 8 8 8 8 8 8 9 9 9 10 10 10 11 12 12 13 14 13 13 13 13 12 12 12 12 11 10 7 10 15 16 16 16 16 16
6 6 6 6 7 8 8 8 8 8 8 8 8 8 8 9 9 9 10 10 11 12 12 13 13 13 12 12 12 12 12 11 10 9 7 7 7 14 15 15 15 16 16
6 6 6 7 7 8 8 8 8 8 8 7 8 8 8 9 9 9 10 10 11 11 12 12 12 12 12 11 11 11 11 11 10 8 7 7 7 13 15 15 15 15 15
6 6 6 7 7 7 8 7 7 8 7 7 8 8 8 8 9 9 10 10 10 11 11 11 12 11 11 11 10 10 10 10 8 6 7 7 6 13 15 15 15 15 15
5 6 6 7 7 7 7 7 7 7 7 7 8 8 8 8 9 9 9 10 10 11 11 11 11 11 10 10 10 9 9 9 7 6 7 6 8 14 14 15 15 15 15
5 6 5 6 7 7 7 7 7 7 7 7 7 8 8 8 8 9 9 10 10 11 11 11 11 10 10 10 9 9 9 8 7 8 7 6 11 14 14 14 14 15 15
5 5 4 4 5 6 7 7 6 7 7 8 8 8 8 8 8 9 9 9 10 10 10 10 10 10 10 9 9 9 9 9 6 5 7 6 11 14 14 14 14 14 15
5 5 4 4 4 4 4 6 7 7 7 7 7 8 8 8 8 8 8 9 9 10 10 10 10 10 9 9 8 8 8 7 5 6 4 6 12 13 14 14 14 14 15
4 4 3 3 3 3 3 5 6 6 5 6 5 6 5 4 4 5 7 8 9 9 9 10 10 10 8 7 7 7 6 3 5 5 4 9 12 12 13 13 13 14 13
3 3 3 3 3 3 3 3 2 3 2 3 3 3 3 3 4 5 7 8 8 8 8 8 8 7 5 3 4 5 3 5 5 4 5 10 11 11 12 12 13 13 12
3 3 3 3 3 3 2 2 2 2 2 2 3 3 3 3 3 3 3 4 4 4 4 4 4 2 3 3 3 3 3 4 4 4 5 9 10 10 11 11 12 12 12
3 3 2 3 2 2 2 2 2 2 1 2 2 3 3 2 2 2 2 2 2 2 2 2 2 3 4 4 4 4 4 3 4 3 4 9 9 9 10 11 11 11 11
3 3 2 2 2 2 2 2 2 2 2 2 2 3 3 2 2 2 2 2 2 2 2 2 3 3 4 4 4 4 4 5 4 4 3 7 8 8 9 9 10 10 10
3 3 2 2 2 2 2 2 2 2 2 2 2 3 3 3 2 2 2 2 2 2 2 2 3 3 3 3 4 4 4 4 4 4 3 4 7 8 8 8 8 8 9
3 3 3 3 2 2 2 2 2 2 3 3 2 3 3 3 3 2 2 2 2 2 2 2 3 3 3 3 4 4 3 3 3 4 3 2 3 5 7 7 7 7 8
2 3 3 2 2 2 2 2 2 2 3 3 2 2 3 3 3 3 2 2 2 2 2 2 2 3 3 3 3 3 3 3 3 3 3 2 2 2 4 6 6 6 7
3 3 2 3 2 2 2 2 2 3 3 3 2 2 3 3 3 3 2 2 2 2 2 2 2 2 3 3 3 3 3 2 2 3 3 3 3 3 2 4 6 6 6
3 3 2 2 2 2 1 2 2 2 2 3 2 2 3 2 3 3 2 2 2 3 2 2 3 3 3 4 4 4 3 3 3 3 3 3 3 4 3 3 3 3 5
3 3 2 2 2 2 2 2 2 2 2 2 2 2 2 2 3 3 2 2 2 2 3 3 3 4 3 3 4 3 3 3 3 2 3 3 3 3 3 3 2 2 2
2 2 2 2 2 2 2 1 1 2 2 2 2 2 3 2 2 2 3 2 2 2 3 3 3 2 2 1 3 3 1 2 2 2 2 2 3 3 3 3 2 2 2
2 2 2 2 2 2 1 1 2 2 2 1 2 1 2 2 2 3 2 2 2 3 3 2 2 3 3 1 1 2 3 2 0 1 1 2 2 2 1 1 2 2 2
1 1 2 2 2 2 2 2 4 3 2 2 2 2 2 2 2 3 3 3 3 3 3 3 2 1 3 3 0 1 1 3 3 1 1 1 1 1 1 1 1 1 1
0 1 1 2 2 2 2 3 3 3 2 2 2 2 2 1 1 2 2 2 3 3 3 3 2 2 2 3 2 1 1 1 1 3 2 1 1 1 0 1 1 1 1
1 1 0 1 2 2 2 3 3 4 4 4 3 3 2 1 1 2 2 2 3 3 3 3 2 2 2 2 2 2 2 2 2 2 2 2 1 1 1 1 1 1 1
Wind_Direction
105 116 124 107 98 96 97 95 94 93 92 89 87 84 81 82 83 82 80 79 78 78 77 74 73 76 76 75 75 75 76 75 75 72 70 70 72 74 73 73 74 73 77
112 121 123 112 104 102 101 98 95 92 90 89 89 88 85 84 85 84 83 81 79 78 77 77 75 76 76 76 76 77 77 77 76 73 71 69 71 73 73 71 75 78 77
105 119 124 110 109 107 103 99 95 95 92 90 89 90 90 89 88 85 84 83 81 80 78 77 76 76 77 77 76 76 76 76 75 72 74 72 73 76 77 76 77 78 79
105 113 118 107 107 109 106 102 96 96 95 93 91 89 91 91 92 88 87 86 84 84 81 79 77 76 78 77 75 74 72 69 68 68 68 68 72 78 79 79 79 79 78
97 100 108 106 103 104 106 104 101 97 97 96 91 88 88 89 90 90 90 87 86 85 83 82 80 79 79 78 75 71 67 64 63 63 67 68 69 79 79 79 79 80 79
92 93 97 99 101 101 102 103 103 100 95 96 92 89 88 90 90 91 90 88 88 87 87 85 83 82 80 79 75 69 64 63 60 60 65 71 74 81 81 80 80 81 81
94 92 98 89 93 94 98 102 102 100 97 94 93 92 92 93 93 93 92 89 90 89 89 88 87 85 82 78 74 66 60 65 64 63 64 68 79 85 84 81 81 82 82
94 94 101 94 90 89 90 97 97 99 96 90 89 92 91 93 94 93 93 91 91 91 91 89 88 87 84 78 71 62 61 65 72 72 66 69 83 85 84 83 82 82 82
92 91 92 96 94 87 83 82 85 89 89 86 80 85 84 82 87 90 91 91 91 92 92 88 87 87 84 79 71 61 58 59 62 68 75 70 83 86 85 83 82 83 82
88 88 88 87 89 86 83 76 77 80 90 88 82 79 80 79 79 82 86 88 89 91 91 90 89 86 83 78 69 59 58 60 67 66 67 78 83 87 86 84 83 83 82
85 84 84 84 83 82 86 80 74 77 87 93 89 83 78 78 81 76 79 83 88 90 92 92 94 91 83 75 62 55 55 66 71 65 61 79 84 86 86 84 83 83 82
105 94 92 88 84 82 85 80 69 72 77 83 91 91 86 75 78 80 76 79 82 85 89 91 92 91 83 73 54 53 57 64 68 65 65 80 86 86 88 87 85 85 85
135 111 93 86 85 82 79 86 69 64 65 63 79 74 84 81 82 82 81 77 77 79 80 89 87 74 75 73 66 60 64 72 71 67 65 79 87 94 94 92 89 88 88
134 121 104 98 98 95 92 92 85 77 63 62 59 77 81 84 84 90 86 81 68 66 74 73 77 73 75 74 73 66 64 76 80 80 69 75 82 93 99 97 96 94 92
135 132 128 115 115 113 109 101 90 88 73 70 67 63 76 83 87 90 91 85 68 56 71 73 72 74 72 69 69 69 68 72 83 85 72 70 78 86 94 99 102 101 98
149 144 135 121 119 117 109 110 106 99 92 80 78 68 69 78 80 87 89 86 75 63 61 77 81 79 76 72 67 64 68 73 81 87 83 70 71 78 89 95 98 103 103
155 146 143 137 125 127 121 117 114 112 108 93 80 85 74 75 86 80 84 82 75 81 82 77 78 80 82 79 73 65 67 70 80 83 82 78 77 74 83 94 98 99 103
141 144 143 140 128 130 126 126 118 115 109 99 91 86 88 75 83 84 83 84 79 80 89 88 91 91 86 80 74 64 61 71 71 77 79 78 79 87 83 87 88 97 107
146 144 142 138 136 133 121 128 125 119 112 108 95 86 95 89 82 94 92 90 85 85 86 92 89 100 104 85 76 66 60 73 78 82 87 87 79 77 85 85 84 84 97
125 123 130 134 131 131 124 117 112 114 116 115 109 97 90 101 91 93 99 90 88 94 86 86 97 90 101 97 80 62 49 56 65 79 90 87 83 79 82 84 89 85 89
115 120 128 139 136 138 139 146 148 141 124 118 118 114 110 108 107 99 108 103 92 105 107 104 111 108 100 100 91 68 35 40 57 66 74 82 83 81 80 82 86 87 88
126 132 148 147 150 154 161 169 168 143 130 127 126 128 130 126 131 117 121 124 116 116 113 112 117 124 123 107 120 120 95 33 17 34 60 83 89 75 72 73 77 89 96
144 163 177 167 162 166 157 133 128 115 110 111 119 129 127 126 146 135 131 137 135 128 135 137 136 137 145 163 132 139 145 167 104 10 46 81 92 93 83 77 77 72 81
169 174 176 167 160 170 162 159 161 161 164 169 158 152 142 137 159 145 141 148 144 139 146 162 154 162 149 155 178 26 136 139 143 133 352 32 60 90 114 89 84 80 84
110 163 180 154 154 167 171 176 180 172 166 149 144 151 144 139 165 158 157 154 150 153 158 161 163 172 158 157 158 138 119 88 122 142 177 242 345 308 178 165 157 142 128
96 91 153 168 165 167 174 183 193 182 167 160 166 169 165 159 175 176 167 158 163 162 168 171 171 179 163 157 164 155 152 154 166 150 164 179 216 266 266 209 189 178 163